OK1VCF-8 Weather Reports


time (UTC)temp
F
wind
direction
speed
knots
gust
knots
rain 1hr
in
rain 24hr
in
rain mn
in
humidity
%
barometer
mb
20260906220445 55 0 0.0 0.0 0.00 0.00 0.00 70 1028.2
20260906215727 54 0 0.0 0.0 0.00 0.00 0.00 70 1028.2
20260906215009 55 0 0.0 0.0 0.00 0.00 0.00 69 1028.1
20260906214252 55 0 0.0 0.0 0.00 0.00 0.00 68 1028.0
20260906213535 55 0 0.0 0.0 0.00 0.00 0.00 68 1028.1
20260906212818 55 0 0.0 0.0 0.00 0.00 0.00 68 1028.2
20260906212058 56 0 0.0 0.0 0.00 0.00 0.00 68 1028.2
20260906211341 56 0 0.0 0.0 0.00 0.00 0.00 68 1028.2
20260906210624 56 0 0.0 0.0 0.00 0.00 0.00 68 1028.2
20260906205622 56 0 0.0 0.0 0.00 0.00 0.00 67 1028.0
20260906204904 57 0 0.0 0.0 0.00 0.00 0.00 66 1028.1
20260906204147 57 0 0.0 0.0 0.00 0.00 0.00 64 1028.2
20260906203430 57 0 0.0 0.0 0.00 0.00 0.00 66 1028.2
20260906202711 57 0 0.0 0.0 0.00 0.00 0.00 64 1028.3
20260906201953 58 0 0.0 0.0 0.00 0.00 0.00 64 1028.2
20260906201236 58 0 0.0 0.0 0.00 0.00 0.00 64 1028.0
20260906200519 58 0 0.0 0.0 0.00 0.00 0.00 63 1028.2
20260906195800 58 0 0.0 0.0 0.00 0.00 0.00 62 1028.1
20260906195043 58 0 0.0 0.0 0.00 0.00 0.00 62 1028.2
20260906194326 58 0 0.0 0.0 0.00 0.00 0.00 62 1028.2
20260906193607 58 0 0.0 0.0 0.00 0.00 0.00 62 1028.2
20260906192850 59 0 0.0 0.0 0.00 0.00 0.00 61 1028.3
20260906192133 60 0 0.0 0.0 0.00 0.00 0.00 60 1028.3
20260906191414 60 0 0.0 0.0 0.00 0.00 0.00 60 1028.4
20260906190412 59 0 0.0 0.0 0.00 0.00 0.00 60 1028.2
20260906185653 60 0 0.0 0.0 0.00 0.00 0.00 58 1028.3
20260906184936 60 0 0.0 0.0 0.00 0.00 0.00 58 1028.2
20260906184219 60 0 0.0 0.0 0.00 0.00 0.00 58 1028.2
20260906183501 60 0 0.0 0.0 0.00 0.00 0.00 57 1028.2
20260906182741 60 0 0.0 0.0 0.00 0.00 0.00 56 1028.0
20260906182022 60 0 0.0 0.0 0.00 0.00 0.00 56 1028.1
20260906181304 60 0 0.0 0.0 0.00 0.00 0.00 54 1028.0
20260906180545 62 0 0.0 0.0 0.00 0.00 0.00 53 1028.0
20260906175825 62 0 0.0 0.0 0.00 0.00 0.00 51 1027.8
20260906175108 63 0 0.0 0.0 0.00 0.00 0.00 50 1027.8
20260906174350 64 0 0.0 0.0 0.00 0.00 0.00 49 1027.8
20260906173630 64 0 0.0 0.0 0.00 0.00 0.00 48 1027.8
20260906172911 64 0 0.0 0.0 0.00 0.00 0.00 47 1027.8
20260906172152 64 0 0.0 0.0 0.00 0.00 0.00 47 1027.7
20260906171149 66 0 0.0 0.0 0.00 0.00 0.00 45 1027.7
20260906170433 66 0 0.0 0.0 0.00 0.00 0.00 44 1027.6
20260906165712 66 0 0.0 0.0 0.00 0.00 0.00 44 1027.7
20260906164953 67 0 0.0 0.0 0.00 0.00 0.00 44 1027.8
20260906164235 68 0 0.0 0.0 0.00 0.00 0.00 40 1027.8
20260906163516 76 0 0.0 0.0 0.00 0.00 0.00 34 1027.6
20260906162756 78 0 0.0 0.0 0.00 0.00 0.00 32 1027.6
20260906162038 76 0 0.0 0.0 0.00 0.00 0.00 33 1027.8
20260906161320 77 0 0.0 0.0 0.00 0.00 0.00 32 1027.7
20260906160604 77 0 0.0 0.0 0.00 0.00 0.00 33 1027.6
20260906154421 78 0 0.0 0.0 0.00 0.00 0.00 32 1028.0
20260906153703 77 0 0.0 0.0 0.00 0.00 0.00 33 1028.0
20260906152941 76 0 0.0 0.0 0.00 0.00 0.00 34 1027.8
20260906151939 74 0 0.0 0.0 0.00 0.00 0.00 36 1028.0
20260906151221 69 0 0.0 0.0 0.00 0.00 0.00 42 1027.8
20260906150501 69 0 0.0 0.0 0.00 0.00 0.00 41 1028.0
20260906145742 69 0 0.0 0.0 0.00 0.00 0.00 42 1027.8
20260906145022 69 0 0.0 0.0 0.00 0.00 0.00 42 1027.9
20260906144301 69 0 0.0 0.0 0.00 0.00 0.00 42 1028.0
20260906143538 69 0 0.0 0.0 0.00 0.00 0.00 43 1028.0
20260906142814 70 0 0.0 0.0 0.00 0.00 0.00 42 1028.0
20260906142052 68 0 0.0 0.0 0.00 0.00 0.00 44 1028.0
20260906141334 69 0 0.0 0.0 0.00 0.00 0.00 44 1028.0
20260906140611 68 0 0.0 0.0 0.00 0.00 0.00 43 1028.1
20260906135846 68 0 0.0 0.0 0.00 0.00 0.00 42 1028.0
20260906135128 68 0 0.0 0.0 0.00 0.00 0.00 42 1028.1
20260906134408 68 0 0.0 0.0 0.00 0.00 0.00 42 1028.0
20260906133650 68 0 0.0 0.0 0.00 0.00 0.00 43 1028.0
20260906132643 68 0 0.0 0.0 0.00 0.00 0.00 44 1028.1
20260906131924 68 0 0.0 0.0 0.00 0.00 0.00 44 1028.0
20260906131203 68 0 0.0 0.0 0.00 0.00 0.00 44 1028.2
20260906130436 68 0 0.0 0.0 0.00 0.00 0.00 44 1028.3
20260906125711 67 0 0.0 0.0 0.00 0.00 0.00 44 1028.2
20260906124947 67 0 0.0 0.0 0.00 0.00 0.00 44 1028.2
20260906124218 67 0 0.0 0.0 0.00 0.00 0.00 44 1028.3
20260906123442 67 0 0.0 0.0 0.00 0.00 0.00 44 1028.2
20260906122708 67 0 0.0 0.0 0.00 0.00 0.00 44 1028.4
20260906121927 67 0 0.0 0.0 0.00 0.00 0.00 44 1028.5
20260906121144 68 0 0.0 0.0 0.00 0.00 0.00 45 1028.5
20260906120359 67 0 0.0 0.0 0.00 0.00 0.00 46 1028.6
20260906115618 66 0 0.0 0.0 0.00 0.00 0.00 46 1028.6
20260906114840 67 0 0.0 0.0 0.00 0.00 0.00 46 1028.6
20260906114101 66 0 0.0 0.0 0.00 0.00 0.00 46 1028.6
20260906113043 66 0 0.0 0.0 0.00 0.00 0.00 47 1028.8
20260906112319 67 0 0.0 0.0 0.00 0.00 0.00 46 1028.8
20260906111556 66 0 0.0 0.0 0.00 0.00 0.00 48 1028.8
20260906110835 64 0 0.0 0.0 0.00 0.00 0.00 48 1028.8
20260906110112 66 0 0.0 0.0 0.00 0.00 0.00 48 1028.8
20260906105351 66 0 0.0 0.0 0.00 0.00 0.00 48 1028.8
20260906104629 66 0 0.0 0.0 0.00 0.00 0.00 48 1029.2
20260906103906 66 0 0.0 0.0 0.00 0.00 0.00 45 1029.1
20260906103145 66 0 0.0 0.0 0.00 0.00 0.00 46 1029.2
20260906102424 65 0 0.0 0.0 0.00 0.00 0.00 48 1029.3
20260906101705 63 0 0.0 0.0 0.00 0.00 0.00 48 1029.3
20260906100945 65 0 0.0 0.0 0.00 0.00 0.00 48 1029.4
20260906100225 65 0 0.0 0.0 0.00 0.00 0.00 48 1029.3
20260906095504 64 0 0.0 0.0 0.00 0.00 0.00 48 1029.2
20260906094744 64 0 0.0 0.0 0.00 0.00 0.00 50 1029.3
20260906093739 65 0 0.0 0.0 0.00 0.00 0.00 49 1029.3
20260906093020 65 0 0.0 0.0 0.00 0.00 0.00 49 1029.3
20260906092301 64 0 0.0 0.0 0.00 0.00 0.00 51 1029.3
20260906091541 63 0 0.0 0.0 0.00 0.00 0.00 52 1029.4
20260906090823 64 0 0.0 0.0 0.00 0.00 0.00 50 1029.2
20260906090106 65 0 0.0 0.0 0.00 0.00 0.00 49 1029.4
20260906085347 64 0 0.0 0.0 0.00 0.00 0.00 50 1029.3
20260906084630 63 0 0.0 0.0 0.00 0.00 0.00 54 1029.4
20260906083913 62 0 0.0 0.0 0.00 0.00 0.00 55 1029.4
20260906083156 64 0 0.0 0.0 0.00 0.00 0.00 54 1029.4
20260906082438 62 0 0.0 0.0 0.00 0.00 0.00 56 1029.3
20260906081719 62 0 0.0 0.0 0.00 0.00 0.00 56 1029.2
20260906081002 62 0 0.0 0.0 0.00 0.00 0.00 56 1029.1
20260906080243 62 0 0.0 0.0 0.00 0.00 0.00 58 1029.0
20260906075523 61 0 0.0 0.0 0.00 0.00 0.00 60 1029.0
20260906074520 61 0 0.0 0.0 0.00 0.00 0.00 61 1028.8
20260906073801 62 0 0.0 0.0 0.00 0.00 0.00 62 1028.6
20260906073041 61 0 0.0 0.0 0.00 0.00 0.00 62 1028.6
20260906072323 60 0 0.0 0.0 0.00 0.00 0.00 63 1028.7
20260906071556 62 0 0.0 0.0 0.00 0.00 0.00 62 1028.6
20260906070833 61 0 0.0 0.0 0.00 0.00 0.00 64 1028.5
20260906070107 60 0 0.0 0.0 0.00 0.00 0.00 64 1028.3
20260906065340 60 0 0.0 0.0 0.00 0.00 0.00 65 1028.2
20260906064615 60 0 0.0 0.0 0.00 0.00 0.00 68 1028.2
20260906063850 60 0 0.0 0.0 0.00 0.00 0.00 68 1028.2
20260906063127 60 0 0.0 0.0 0.00 0.00 0.00 68 1028.2
20260906062359 58 0 0.0 0.0 0.00 0.00 0.00 70 1028.2
20260906061633 58 0 0.0 0.0 0.00 0.00 0.00 72 1028.1
20260906060911 57 0 0.0 0.0 0.00 0.00 0.00 73 1028.0
20260906060147 56 0 0.0 0.0 0.00 0.00 0.00 74 1027.9
20260906055135 56 0 0.0 0.0 0.00 0.00 0.00 75 1027.8
20260906054416 56 0 0.0 0.0 0.00 0.00 0.00 76 1027.7
20260906053658 55 0 0.0 0.0 0.00 0.00 0.00 78 1027.6
20260906052938 54 0 0.0 0.0 0.00 0.00 0.00 78 1027.6
20260906052221 55 0 0.0 0.0 0.00 0.00 0.00 78 1027.4
20260906051503 55 0 0.0 0.0 0.00 0.00 0.00 78 1027.6
20260906050746 55 0 0.0 0.0 0.00 0.00 0.00 78 1027.4
20260906050028 54 0 0.0 0.0 0.00 0.00 0.00 80 1027.3
20260906045310 53 0 0.0 0.0 0.00 0.00 0.00 80 1027.2
20260906044554 53 0 0.0 0.0 0.00 0.00 0.00 80 1027.2
20260906043838 53 0 0.0 0.0 0.00 0.00 0.00 80 1027.2
20260906043121 54 0 0.0 0.0 0.00 0.00 0.00 80 1027.2
20260906042403 52 0 0.0 0.0 0.00 0.00 0.00 80 1027.2
20260906041645 54 0 0.0 0.0 0.00 0.00 0.00 76 1027.2
20260906040929 55 0 0.0 0.0 0.00 0.00 0.00 76 1027.0
20260906035926 56 0 0.0 0.0 0.00 0.00 0.00 74 1026.9
20260906035209 56 0 0.0 0.0 0.00 0.00 0.00 74 1026.8
20260906034450 56 0 0.0 0.0 0.00 0.00 0.00 75 1026.7
20260906033734 56 0 0.0 0.0 0.00 0.00 0.00 75 1026.8
20260906033017 55 0 0.0 0.0 0.00 0.00 0.00 78 1026.6
20260906032305 54 0 0.0 0.0 0.00 0.00 0.00 78 1026.6
20260906031544 54 0 0.0 0.0 0.00 0.00 0.00 79 1026.6
20260906030826 54 0 0.0 0.0 0.00 0.00 0.00 80 1026.6
20260906030110 54 0 0.0 0.0 0.00 0.00 0.00 79 1026.6
20260906025352 54 0 0.0 0.0 0.00 0.00 0.00 80 1026.5
20260906024635 54 0 0.0 0.0 0.00 0.00 0.00 78 1026.4
20260906023918 56 0 0.0 0.0 0.00 0.00 0.00 75 1026.3
20260906023202 57 0 0.0 0.0 0.00 0.00 0.00 72 1026.4
20260906022445 57 0 0.0 0.0 0.00 0.00 0.00 72 1026.3
20260906021729 57 0 0.0 0.0 0.00 0.00 0.00 72 1026.2
20260906020728 57 0 0.0 0.0 0.00 0.00 0.00 72 1026.2
20260906020011 57 0 0.0 0.0 0.00 0.00 0.00 72 1026.2
20260906015253 57 0 0.0 0.0 0.00 0.00 0.00 72 1026.0
20260906014535 58 0 0.0 0.0 0.00 0.00 0.00 72 1025.9
20260906013819 58 0 0.0 0.0 0.00 0.00 0.00 70 1025.9
20260906013101 58 0 0.0 0.0 0.00 0.00 0.00 70 1026.0
20260906012341 58 0 0.0 0.0 0.00 0.00 0.00 70 1026.0
20260906011621 58 0 0.0 0.0 0.00 0.00 0.00 70 1025.8
20260906010901 58 0 0.0 0.0 0.00 0.00 0.00 69 1026.0
20260906010137 58 0 0.0 0.0 0.00 0.00 0.00 69 1026.0
20260906005406 59 0 0.0 0.0 0.00 0.00 0.00 68 1026.0
20260906004637 59 0 0.0 0.0 0.00 0.00 0.00 66 1025.9
20260906003913 60 0 0.0 0.0 0.00 0.00 0.00 66 1025.9
20260906003150 59 0 0.0 0.0 0.00 0.00 0.00 67 1026.0
20260906002424 59 0 0.0 0.0 0.00 0.00 0.00 67 1025.9
20260906001415 58 0 0.0 0.0 0.00 0.00 0.00 70 1025.8
20260906000653 57 0 0.0 0.0 0.00 0.00 0.00 69 1025.8
20260905235928 58 0 0.0 0.0 0.00 0.00 0.00 68 1025.6
20260905235206 59 0 0.0 0.0 0.00 0.00 0.00 66 1025.5
20260905234438 59 0 0.0 0.0 0.00 0.00 0.00 67 1025.6
20260905233708 59 0 0.0 0.0 0.00 0.00 0.00 66 1025.4
20260905232940 60 0 0.0 0.0 0.00 0.00 0.00 65 1025.4
20260905232209 60 0 0.0 0.0 0.00 0.00 0.00 64 1025.4
20260905231449 59 0 0.0 0.0 0.00 0.00 0.00 65 1025.4
20260905230732 59 0 0.0 0.0 0.00 0.00 0.00 65 1025.2
20260905230015 60 0 0.0 0.0 0.00 0.00 0.00 64 1025.2
20260905225258 59 0 0.0 0.0 0.00 0.00 0.00 64 1025.2
20260905224541 59 0 0.0 0.0 0.00 0.00 0.00 64 1025.1
20260905223824 60 0 0.0 0.0 0.00 0.00 0.00 62 1025.0
20260905223108 60 0 0.0 0.0 0.00 0.00 0.00 62 1025.2
20260905222106 60 0 0.0 0.0 0.00 0.00 0.00 60 1025.0
20260905221349 61 0 0.0 0.0 0.00 0.00 0.00 59 1024.8